Weather History for Little Rock AFB, AR

Change the Weather History Date:

Friday, March 29, 2013

  Actual Average Record
Temperature  
Mean Temperature 55 °F -  
Max Temperature 62 °F 69 °F 86 °F (1998)
Min Temperature 48 °F 46 °F 31 °F (1966)
Degree Days  
Heating Degree Days 10    
Growing Degree Days 5 (Base 50)    
Moisture  
Dew Point 51 °F    
Average Humidity 90    
Maximum Humidity 100    
Minimum Humidity 65    
Precipitation  
Precipitation 0.75 in - - ()
Sea Level Pressure  
Sea Level Pressure 30.20 in    
Wind  
Wind Speed 4 mph (East)    
Max Wind Speed 8 mph    
Max Gust Speed -    
Visibility 8 miles    
Events Rain , Thunderstorm    
Averages and records for this station are not official NWS values.
T = Trace of Precipitation, MM = Missing Value Source: NWS Daily Summary

Daily Weather History Graph

Daily Weather History Graph

Search for Another Location

Airport:

Trip Planner

Search our weather history database for the weather conditions in past years. The results will help you decide how hot, cold, wet, or windy it might be!

Date:

Astronomy

Mar. 29, 2013 Rise Set
Actual Time 6:59 AM CDT 7:27 PM CDT
Civil Twilight 6:33 AM CDT 7:53 PM CDT
Nautical Twilight 6:04 AM CDT 8:22 PM CDT
Astronomical Twilight 5:33 AM CDT 8:53 PM CDT
Moon 10:20 PM CDT (3/29) 8:15 AM CDT (3/29)
Length of Visible Light 13h 19m
Length of Day
12h 28m
Waning Gibbous, 93% of the Moon is Illuminated
Mar 29
Waning Gibbous
Apr 2
Last Quarter
Apr 10
New
Apr 18
First Quarter
Apr 25
Full

Hourly Weather History & Observations

Time (CDT) Temp. Dew Point Humidity Pressure Visibility Wind Dir Wind Speed Gust Speed Precip Events Conditions
12:58 AM 54.7 °F 43.2 °F 65% 30.22 in 10.0 mi East 2.3 mph - N/A   Partly Cloudy
1:58 AM 51.3 °F 43.2 °F 74% 30.22 in 10.0 mi SE 2.3 mph - N/A   Clear
2:58 AM 50.5 °F 44.1 °F 78% 30.20 in 10.0 mi East 2.3 mph - N/A   Clear
3:58 AM 51.4 °F 43.5 °F 74% 30.19 in 10.0 mi Variable 1.2 mph - N/A   Scattered Clouds
4:58 AM 53.1 °F 41.9 °F 66% 30.18 in 10.0 mi Calm Calm - N/A   Mostly Cloudy
5:58 AM 48.4 °F 42.6 °F 80% 30.18 in 10.0 mi NNE 2.3 mph - N/A   Overcast
6:58 AM 49.6 °F 43.9 °F 81% 30.18 in 10.0 mi NE 3.5 mph - N/A   Mostly Cloudy
7:08 AM 51.8 °F 42.8 °F 71% 30.17 in 10.0 mi North - - N/A   Light Drizzle
7:30 AM 50.0 °F 46.4 °F 87% 30.18 in 9.0 mi Calm Calm - N/A Rain , Thunderstorm Light Thunderstorms and Rain
7:35 AM 50.0 °F 46.4 °F 87% 30.19 in 2.5 mi NNW 3.5 mph - N/A Rain , Thunderstorm Light Thunderstorms and Rain
7:40 AM 50.0 °F 46.4 °F 87% 30.20 in 1.8 mi NNW 5.8 mph - N/A Rain , Thunderstorm Heavy Thunderstorms and Rain
7:55 AM 50.0 °F 46.4 °F 87% 30.19 in 6.0 mi East 5.8 mph - N/A Rain , Thunderstorm Light Thunderstorms and Rain
7:58 AM 49.3 °F 46.9 °F 92% 30.20 in 8.0 mi East 5.8 mph - 0.23 in Rain , Thunderstorm Light Thunderstorms and Rain
8:01 AM 50.0 °F 46.4 °F 87% 30.19 in 7.0 mi East 5.8 mph - N/A Rain , Thunderstorm Light Rain
8:09 AM 50.0 °F 48.2 °F 94% 30.18 in 10.0 mi ESE 4.6 mph - N/A Rain , Thunderstorm Light Thunderstorms and Rain
8:12 AM 50.0 °F 48.2 °F 94% 30.18 in 10.0 mi ESE 5.8 mph - N/A Thunderstorm Thunderstorm
8:16 AM 50.0 °F 48.2 °F 94% 30.18 in 10.0 mi ESE 5.8 mph - N/A Rain , Thunderstorm Light Thunderstorms and Rain
8:41 AM 50.0 °F 48.2 °F 94% 30.22 in 8.0 mi NNE 4.6 mph - N/A Rain , Thunderstorm Light Thunderstorms and Rain
8:46 AM 50.0 °F 48.2 °F 94% 30.21 in 1.8 mi ESE 5.8 mph - N/A Rain , Thunderstorm Thunderstorms and Rain
8:51 AM 50.0 °F 48.2 °F 94% 30.22 in 1.0 mi East 3.5 mph - N/A Rain , Thunderstorm Heavy Thunderstorms and Rain
8:56 AM 50.0 °F 48.2 °F 94% 30.21 in 1.5 mi ESE 8.1 mph - N/A Rain , Thunderstorm Light Thunderstorms and Rain
8:58 AM 50.2 °F 48.7 °F 95% 30.22 in 1.8 mi ESE 8.1 mph - 0.22 in Rain , Thunderstorm Light Thunderstorms and Rain
9:03 AM 50.0 °F 48.2 °F 94% 30.21 in 6.0 mi ESE 5.8 mph - N/A Rain , Thunderstorm Light Thunderstorms and Rain
9:23 AM 50.0 °F 50.0 °F 100% 30.21 in 6.0 mi ESE 5.8 mph - N/A Rain , Thunderstorm Light Thunderstorms and Rain
9:28 AM 50.0 °F 50.0 °F 100% 30.20 in 5.0 mi ESE 5.8 mph - N/A Rain Light Rain
9:37 AM 50.0 °F 50.0 °F 100% 30.21 in 10.0 mi ESE 4.6 mph - N/A Thunderstorm Overcast
9:58 AM 51.8 °F 51.3 °F 98% 30.22 in 10.0 mi SE 5.8 mph - 0.02 in   Mostly Cloudy
10:26 AM 53.6 °F 51.8 °F 94% 30.23 in 10.0 mi WNW 1.2 mph - N/A Rain Light Rain
10:46 AM 51.8 °F 51.8 °F 100% 30.23 in 2.5 mi Calm Calm - N/A Rain Rain
10:51 AM 51.8 °F 51.8 °F 100% 30.24 in 1.8 mi Calm Calm - N/A Rain Rain
10:58 AM 52.7 °F 52.3 °F 99% 30.24 in 1.5 mi East 2.3 mph - 0.12 in Rain Rain
11:08 AM 53.6 °F 51.8 °F 94% 30.23 in 3.0 mi East 2.3 mph - N/A Rain Light Rain
11:38 AM 53.6 °F 51.8 °F 94% 30.22 in 2.5 mi Variable 3.5 mph - N/A Rain Light Rain
11:43 AM 53.6 °F 51.8 °F 94% 30.23 in 2.0 mi Calm Calm - N/A Rain Rain
11:53 AM 53.6 °F 51.8 °F 94% 30.21 in 5.0 mi Variable 3.5 mph - N/A Rain Light Rain
11:58 AM 53.1 °F 52.9 °F 99% 30.22 in 6.0 mi ESE 4.6 mph - 0.16 in Rain Light Rain
12:03 PM 53.6 °F 53.6 °F 100% 30.22 in 7.0 mi Variable 1.2 mph - N/A Rain Light Rain
12:08 PM 53.6 °F 53.6 °F 100% 30.21 in 9.0 mi NE 5.8 mph - N/A   Light Drizzle
12:10 PM 53.6 °F 53.6 °F 100% 30.22 in 10.0 mi NNE 5.8 mph - N/A   Overcast
12:45 PM 53.6 °F 53.6 °F 100% 30.21 in 10.0 mi ESE 1.2 mph - N/A   Overcast
12:58 PM 54.9 °F 53.8 °F 96% 30.22 in 10.0 mi SSW 2.3 mph - 0.00 in   Overcast
1:58 PM 56.1 °F 54.0 °F 92% 30.20 in 10.0 mi SW 4.6 mph - N/A   Overcast
2:03 PM 55.4 °F 53.6 °F 94% 30.19 in 10.0 mi WSW 1.2 mph - N/A   Overcast
2:38 PM 57.2 °F 53.6 °F 88% 30.18 in 10.0 mi WSW 4.6 mph - N/A   Overcast
2:39 PM 57.2 °F 53.6 °F 88% 30.18 in 10.0 mi WSW 4.6 mph - N/A Rain Light Rain
2:44 PM 57.2 °F 53.6 °F 88% 30.18 in 10.0 mi WSW 4.6 mph - N/A Rain Light Rain
2:49 PM 57.2 °F 53.6 °F 88% 30.18 in 10.0 mi SW 2.3 mph - N/A Rain Light Rain
2:58 PM 57.7 °F 54.5 °F 89% 30.18 in 10.0 mi SW 4.6 mph - 0.00 in Rain Light Rain
3:01 PM 59.0 °F 53.6 °F 82% 30.17 in 10.0 mi WSW 3.5 mph - N/A   Mostly Cloudy
3:11 PM 59.0 °F 53.6 °F 82% 30.16 in 10.0 mi Variable 3.5 mph - N/A   Mostly Cloudy
3:56 PM 60.8 °F 55.4 °F 82% 30.16 in 10.0 mi Variable 3.5 mph - N/A   Scattered Clouds
4:52 PM 62.6 °F 55.4 °F 77% 30.16 in 10.0 mi NE 5.8 mph - N/A   Mostly Cloudy
4:58 PM 61.7 °F 56.3 °F 82% 30.17 in 10.0 mi NE 5.8 mph - N/A   Mostly Cloudy
5:53 PM 60.8 °F 55.4 °F 82% 30.15 in 10.0 mi NE 5.8 mph - N/A   Scattered Clouds
5:58 PM 60.3 °F 55.8 °F 85% 30.16 in 10.0 mi ENE 5.8 mph - N/A   Scattered Clouds
6:58 PM 59.0 °F 55.0 °F 87% 30.17 in 10.0 mi NE 5.8 mph - N/A   Scattered Clouds
7:58 PM 57.2 °F 54.7 °F 91% 30.16 in 10.0 mi ENE 4.6 mph - N/A   Mostly Cloudy
8:58 PM 56.7 °F 54.1 °F 91% 30.18 in 10.0 mi SE 3.5 mph - N/A   Mostly Cloudy
9:58 PM 56.1 °F 54.3 °F 94% 30.19 in 10.0 mi East 4.6 mph - N/A   Mostly Cloudy
10:58 PM 56.1 °F 53.4 °F 91% 30.19 in 10.0 mi ENE 5.8 mph - N/A   Overcast
11:58 PM 55.8 °F 52.9 °F 90% 30.19 in 10.0 mi ENE 4.6 mph - N/A   Mostly Cloudy